Location: Desmonts
(48.2273°N, 2.4963°E)
Time: 14:58:51
(UTC+00:00)

Daily predictions for brighter satellites

Satellite Brightness Start Highest point End
(mag) Time Altitude Azimuth Time Altitude Azimuth Time Altitude Azimuth
Cosmos 1092 Rocket 4.1 16:21:12 10° N 16:27:24 90° W 16:33:32 10° S
SMAP 3.6 16:26:14 10° SE 16:30:31 38° ENE 16:34:49 10° N
Cosmos 1656 4.0 16:25:38 10° S 16:31:00 49° ESE 16:36:27 10° NE
UNK 4.5 16:29:10 10° NNE 16:33:19 33° E 16:37:25 10° SSE
NOSS 2-2 (C) 2.9 16:31:23 10° SW 16:34:38 68° NW 16:37:37 10° NE
YAOGAN 1 4.4 16:33:52 10° ENE 16:34:48 11° NE 16:35:45 10° NE
Cosmos 2228 2.9 16:30:36 10° S 16:34:49 75° E 16:39:04 10° NNE
Cosmos 1867 4.2 16:30:26 10° NNW 16:35:28 36° NE 16:40:28 10° ESE
Landsat 7 4.4 16:31:52 10° SE 16:36:02 33° ENE 16:40:12 10° N
Cosmos 2297 Rocket 2.3 16:34:17 10° NNW 16:39:52 55° ENE 16:45:25 10° SE
USA 290 2.9 16:37:01 10° N 16:40:02 33° ENE 16:43:01 10° SE
USA 215 3.9 16:36:05 10° ENE 16:42:10 42° N 16:48:14 10° WNW
Cosmos 773 Rocket 4.0 16:38:06 10° NNW 16:43:19 68° ENE 16:48:32 10° SSE
Cosmos 1782 2.7 16:41:48 10° S 16:45:17 49° E 16:48:47 10° NNE
ATLAS CENTAUR R/B 0.6 16:43:30 10° NW 16:46:46 76° NE 16:49:55 10° SE
CZ-4C R/B 3.0 16:40:52 10° NW 16:47:29 58° NE 16:55:46 10° ESE
Cosmos 1607 4.0 16:42:42 10° NW 16:48:55 64° NE 16:55:09 10° SE
Cosmos 1733 0.9 16:48:27 10° N 16:50:03 56° E 16:51:38 10° SSE
CZ-2D R/B 3.5 16:49:02 10° SE 16:51:49 30° ENE 16:54:37 10° N
Lacrosse 4 Rocket 3.0 16:50:55 10° WSW 16:54:27 28° NW 16:57:59 10° NNE
ARIANE 5 R/B 2.6 16:51:39 10° SE 16:56:33 53° ENE 17:01:32 10° N
Cosmos 1825 Rocket 4.4 16:53:12 10° NNE 16:56:57 27° ENE 17:00:38 10° SE
Iridium 51 4.4 16:54:01 10° SSW 16:57:04 55° W 17:00:13 10° N
Cosmos 1315 Rocket 3.9 16:54:44 10° SSW 16:58:23 43° WNW 17:02:04 10° N
Cosmos 1758 Rocket 3.4 16:55:01 10° N 16:59:21 85° E 17:03:38 10° S
Cosmos 2266 Rocket 4.1 16:53:26 10° N 16:59:28 52° ENE 17:05:22 10° SSE
Cosmos 2098 Rocket 3.0 16:57:41 10° S 17:01:40 66° E 17:06:25 10° NNE
Cosmos 2208 Rocket 4.1 16:57:49 10° NNW 17:03:00 85° WSW 17:08:11 10° SSE
Cosmos 2151 2.9 17:00:36 10° N 17:04:42 57° ENE 17:08:48 10° SSE
Cosmos 1743 2.1 17:02:08 10° N 17:05:23 72° E 17:08:36 10° SSE
Cosmos 1980 Rocket 3.7 17:03:12 10° SE 17:06:29 16° E 17:08:00 14° E
SPOT 1/Viking Rocket 4.2 17:02:00 10° SE 17:06:36 33° ENE 17:11:14 10° N
SL-16 R/B 3.0 17:10:07 10° N 17:16:16 63° WNW 17:22:22 10° SSW
Cosmos 2263 Rocket 2.9 17:12:59 10° NNW 17:18:04 32° NE 17:23:09 10° ESE
NOSS 3-2 (C) 3.2 17:13:35 10° SSW 17:18:30 61° SE 17:23:02 17° NE
NOSS 3-2 (A) 3.5 17:13:34 10° SW 17:18:36 64° NW 17:24:05 13° NE
CORIOLIS 4.3 17:14:20 10° S 17:19:39 76° WSW 17:25:01 10° NNW
MOS 1 Rocket 3.4 17:18:55 10° SSE 17:23:44 66° ENE 17:28:52 10° N
Cosmos 783 Rocket 4.4 17:18:47 10° NNW 17:24:06 71° ENE 17:29:23 10° SSE
GEOS 3 Rocket 3.8 17:19:36 13° NE 17:24:27 77° NW 17:29:49 10° SW
BREEZE M DEB (TANK) 2.3 17:22:30 10° SW 17:24:49 39° SSE 17:25:19 32° ESE
Cosmos 1076 Rocket 4.1 17:22:26 10° N 17:26:22 34° ENE 17:30:18 10° SE
AQUARIUS 4.0 17:22:22 10° SSE 17:26:45 73° ENE 17:31:10 10° N
Cosmos 1933 3.3 17:24:06 10° S 17:27:49 52° E 17:30:45 16° NNE
SJ-12 3.7 17:25:53 10° SSE 17:29:39 88° WSW 17:33:28 10° NNW
Cosmos 2084 Rocket 3.3 17:26:32 10° NW 17:30:46 85° NE 17:34:59 10° SE
Cosmos 2227 Rocket 2.2 17:25:28 10° NNW 17:31:05 60° ENE 17:36:39 10° SE
Cosmos 1606 Rocket 3.6 17:27:01 10° S 17:31:18 54° E 17:35:23 11° NNE
Cosmos 2360 4.3 17:26:18 10° SSW 17:32:02 81° WNW 17:37:25 12° NNE
BlueWalker 3 3.9 17:29:03 10° W 17:32:11 27° SW 17:35:17 10° SSE
Thor Agena Rocket 4.5 17:27:57 10° S 17:33:01 51° W 17:38:04 10° NNW
Cosmos 1900 4.3 17:28:25 10° NW 17:33:31 81° NE 17:38:28 10° SE
Cosmos 2369 Rocket 4.5 17:32:18 10° WNW 17:35:16 14° NNW 17:38:15 10° N
PSLV R/B 4.1 17:36:05 30° E 17:36:31 31° ENE 17:40:06 10° N
CZ-2D R/B 3.7 17:33:15 10° SE 17:37:14 43° ENE 17:41:12 10° N
NOSS 2-2 (D) 4.1 17:35:40 10° WSW 17:38:36 31° NW 17:40:03 20° N
COSMO-SKYMED 1 3.3 17:39:14 28° E 17:39:14 28° E 17:42:42 10° SSE
SL-19 R/B 4.5 17:36:00 10° SE 17:41:03 43° ENE 17:46:21 10° N
Resurs 1-3 3.9 17:37:16 10° SE 17:41:16 39° ENE 17:45:18 10° N
Cosmos 1503 Rocket 4.0 17:36:26 10° SSW 17:41:42 90° WNW 17:46:11 14° NNE
BREEZE-M DEB (TANK) 3.6 17:39:31 10° W 17:42:47 81° N 17:48:33 21° E
SAR-Lupe-3 4.2 17:45:05 45° SSE 17:45:05 45° SSE 17:47:00 10° S
Cosmos 1697 Rocket 2.6 17:41:35 10° SSW 17:47:08 68° ESE 17:50:44 23° NE
Lacrosse 5 rocket 2.6 17:46:05 10° WNW 17:49:08 23° NNW 17:49:58 22° N
Okean 1-7 Rocket 3.9 17:45:20 10° NNW 17:49:43 68° W 17:54:02 10° S
Cosmos 1354 Rocket 3.9 17:44:42 10° SSW 17:49:57 77° ESE 17:53:34 21° NNE
BREEZE-M DEB (TANK) 4.0 17:48:39 10° WNW 17:52:05 58° N 17:57:03 26° E
Cosmos 1461 2.7 17:48:58 10° SW 17:52:52 76° NW 17:54:18 37° NNE
NOSS 2-2 (E) 4.2 17:50:38 10° WSW 17:53:29 29° NW 17:54:24 24° N
Spot 4 Rocket 3.9 17:50:00 10° SSE 17:55:00 61° ENE 18:00:04 10° N
IRAS Rocket 4.2 17:50:56 10° SE 17:56:15 55° ENE 18:01:36 10° N
Cosmos 1726 Rocket 3.5 17:51:55 10° S 17:56:33 74° E 17:59:49 19° NNE
Cosmos 1655 Rocket 3.9 17:54:34 10° N 18:00:51 80° E 18:07:04 10° SSE
SKYMED 2 3.4 17:59:35 29° NNE 18:01:46 74° ESE 18:06:06 10° S
Gbstr 26 Del rocket 2.8 17:58:27 10° SW 18:02:21 56° SSE 18:02:38 54° SE
Cosmos 1898 Rocket 4.4 17:59:54 10° SSE 18:03:17 29° SE 18:03:17 29° SE
NOAA 15 4.5 18:00:16 10° SSE 18:05:33 78° ENE 18:10:51 10° NNW
Meteor 2-10 4.0 18:02:44 10° N 18:08:03 62° ENE 18:13:30 10° SSE
CENTAUR R/B 4.0 18:02:39 10° W 18:08:10 30° NNW 18:12:28 18° NNE
YAOGAN 1 2.3 18:05:39 10° SSE 18:09:54 78° ENE 18:14:11 10° N
NOSS 2-3 (C) 4.0 18:10:26 10° SSW 18:12:45 36° S 18:12:45 36° S
Cosmos 2082 3.9 18:11:32 10° NNW 18:17:03 46° NE 18:17:04 46° NE
Meteor 1-26 Rocket 4.2 18:12:50 10° S 18:18:03 52° E 18:18:03 52° E
USA 238 DEB 3.6 18:12:42 10° SSW 18:18:36 55° ESE 18:19:57 46° E
USA 238 3.6 18:12:49 10° SSW 18:18:43 54° ESE 18:20:02 46° E
Cosmos 1867 4.3 18:13:58 10° NW 18:19:15 53° WSW 18:24:31 10° SSE
Cosmos 2297 Rocket 4.3 18:18:51 10° NW 18:23:33 27° WSW 18:28:13 10° SSW
Cosmos 1953 Rocket 3.8 18:19:37 10° NNW 18:24:02 70° W 18:28:28 10° S
USA 215 3.6 18:22:49 40° NE 18:24:27 48° NNE 18:30:42 10° WNW
Cosmos 372 Rocket 4.0 18:21:49 10° S 18:26:26 57° SE 18:26:26 57° SE
Cosmos-2242 4.2 18:22:52 10° S 18:25:06 30° S 18:25:06 30° S
Aureole 1 Rocket 3.4 18:23:41 10° S 18:27:17 58° SSE 18:27:17 58° SSE
CZ-4C R/B 3.9 18:29:06 10° NW 18:35:58 48° WSW 18:44:13 10° S
USA 81 4.2 18:32:24 10° N 18:37:40 73° W 18:42:54 10° S
NOAA 6 4.0 18:35:09 10° SSE 18:40:16 81° WSW 18:45:24 10° NNW
Cosmos 2219 3.1 18:35:23 10° NNW 18:41:10 80° ENE 18:41:35 75° ESE
Cosmos 1980 Rocket 2.1 18:44:00 10° SSW 18:49:40 88° WNW 18:49:48 86° N
Cosmos 2058 Rocket 4.0 18:48:35 10° SSW 18:51:54 46° SW 18:51:54 46° SW
Nadezhda 2 Rocket 4.4 18:48:58 10° N 18:55:08 82° W 19:01:13 10° S
Cosmos 1844 Rocket 4.3 18:50:26 10° NNW 18:52:38 22° N 18:52:38 22° N
Cosmos 2263 Rocket 2.9 18:56:44 10° NW 19:02:13 51° WSW 19:04:58 28° S
Cosmos 1553 Rocket 4.0 18:59:58 10° SSW 19:06:07 79° W 19:06:49 70° NNW
NOSS 3-2 (C) 4.4 19:04:49 10° W 19:09:43 35° NNW 19:10:27 34° NNW
Cosmos 2227 Rocket 4.3 19:10:13 10° NW 19:14:41 24° WSW 19:19:07 10° SSW
Cosmos 1697 Rocket 4.4 19:26:58 10° WSW 19:31:35 26° NW 19:32:29 25° NNW
CENTAUR R/B 4.5 19:55:19 10° NW 19:59:34 24° N 19:59:34 24° N
USA 215 4.5 20:10:10 36° WNW 20:10:10 36° WNW 20:13:47 10° NW
